LSP814 YMML-SCEL

Flight info

Callsign LSP814
Flight time N/A
Altitude 29000
Route SUNTI H169 IRSOM V33 TASUM/N0492F310 DCT 48S154E 53S163E 56S169E DCT 60S80/N0486F330 DCT 63S168W 65S154W 65S131W 64S122W 62S112W/N0491F350 59S102W 56S095W 53S090W/N0484F360 47S082W 42S077W DCT PANEX DCT LODOS UQ808 EROLO EROLO7F
Aircraft B77W/H-SDE1E2E3FGHIJ2J3J4J5M1RWXY/LB1D1

Departure

Time 2026-05-08 00:32
Airport Melbourne Airport (YMML)

Arrival

Time N/A
Airport Comodoro Arturo Merino Benítez International Airport (SCEL)
Time Latitude Longitude Altitude Speed Heading
2026-05-07 23:58 -37.66910 144.84514 396 ft 0 kts 11°
2026-05-08 00:13 -37.66911 144.84514 396 ft 2 kts 11°
2026-05-08 00:13 -37.66935 144.84507 394 ft 4 kts 13°
2026-05-08 00:14 -37.66962 144.84500 391 ft 4 kts
2026-05-08 00:14 -37.66988 144.84495 391 ft 4 kts
2026-05-08 00:14 -37.67013 144.84492 388 ft 4 kts 348°
2026-05-08 00:14 -37.67027 144.84501 394 ft 4 kts 259°
2026-05-08 00:15 -37.67018 144.84533 388 ft 4 kts 250°
2026-05-08 00:15 -37.67013 144.84556 392 ft 1 kts 266°
2026-05-08 00:15 -37.67013 144.84560 392 ft 3 kts 266°
2026-05-08 00:20 -37.67014 144.84541 390 ft 6 kts 266°
2026-05-08 00:20 -37.67023 144.84480 393 ft 7 kts 251°
2026-05-08 00:20 -37.67042 144.84422 392 ft 7 kts 251°
2026-05-08 00:21 -37.67053 144.84358 391 ft 7 kts 261°
2026-05-08 00:21 -37.67060 144.84294 390 ft 7 kts 263°
2026-05-08 00:21 -37.67030 144.84245 390 ft 8 kts 335°
2026-05-08 00:21 -37.66976 144.84228 391 ft 8 kts 349°
2026-05-08 00:22 -37.66918 144.84216 393 ft 9 kts 352°
2026-05-08 00:22 -37.66858 144.84206 393 ft 9 kts 350°
2026-05-08 00:22 -37.66798 144.84195 395 ft 9 kts 352°
2026-05-08 00:22 -37.66746 144.84160 396 ft 9 kts 310°
2026-05-08 00:23 -37.66723 144.84088 395 ft 9 kts 279°
2026-05-08 00:23 -37.66719 144.84004 396 ft 10 kts 286°
2026-05-08 00:23 -37.66661 144.83961 399 ft 10 kts 347°
2026-05-08 00:23 -37.66591 144.83946 402 ft 10 kts 351°
2026-05-08 00:24 -37.66521 144.83933 408 ft 10 kts 352°
2026-05-08 00:24 -37.66451 144.83921 410 ft 10 kts 352°
2026-05-08 00:24 -37.66381 144.83907 409 ft 10 kts 351°
2026-05-08 00:24 -37.66339 144.83899 410 ft 0 kts 352°
2026-05-08 00:25 -37.66337 144.83899 410 ft 3 kts 352°
2026-05-08 00:25 -37.66247 144.83883 412 ft 23 kts 352°
2026-05-08 00:25 -37.66029 144.83841 419 ft 36 kts 352°
2026-05-08 00:26 -37.65813 144.83800 421 ft 20 kts 351°
2026-05-08 00:26 -37.65682 144.83776 424 ft 16 kts 352°
2026-05-08 00:26 -37.65580 144.83794 423 ft 16 kts 56°
2026-05-08 00:26 -37.65541 144.83921 419 ft 16 kts 38°
2026-05-08 00:27 -37.65432 144.83928 424 ft 16 kts 349°
2026-05-08 00:27 -37.65326 144.83888 428 ft 16 kts 327°
2026-05-08 00:27 -37.65298 144.83760 439 ft 16 kts 262°
2026-05-08 00:27 -37.65309 144.83675 428 ft 0 kts 261°
2026-05-08 00:29 -37.65318 144.83610 438 ft 14 kts 258°
2026-05-08 00:29 -37.65329 144.83523 435 ft 7 kts 261°
2026-05-08 00:29 -37.65369 144.83504 427 ft 7 kts 178°
2026-05-08 00:30 -37.65396 144.83507 434 ft 0 kts 173°
2026-05-08 00:31 -37.65418 144.83510 433 ft 21 kts 173°
2026-05-08 00:31 -37.65851 144.83589 421 ft 104 kts 173°
2026-05-08 00:31 -37.66828 144.83773 397 ft 178 kts 172°
2026-05-08 00:31 -37.68244 144.84042 367 ft 227 kts 173°
2026-05-08 00:32 -37.69777 144.84394 1305 ft 216 kts 175°
2026-05-08 00:32 -37.71260 144.84719 2333 ft 216 kts 176°
2026-05-08 00:32 -37.72715 144.85021 3101 ft 213 kts 178°
2026-05-08 00:32 -37.74211 144.85248 3610 ft 219 kts 178°
2026-05-08 00:33 -37.75748 144.85481 4108 ft 226 kts 178°
2026-05-08 00:33 -37.77341 144.85747 4594 ft 236 kts 176°
2026-05-08 00:33 -37.79019 144.86044 4978 ft 249 kts 175°
2026-05-08 00:33 -37.80757 144.86363 5522 ft 254 kts 175°
2026-05-08 00:34 -37.82485 144.86686 6222 ft 255 kts 175°
2026-05-08 00:34 -37.84249 144.87040 6839 ft 258 kts 170°
2026-05-08 00:34 -37.85974 144.87740 7444 ft 262 kts 163°
2026-05-08 00:34 -37.87667 144.88614 8129 ft 263 kts 162°
2026-05-08 00:35 -37.89355 144.89515 8794 ft 264 kts 162°
2026-05-08 00:35 -37.91053 144.90420 9467 ft 265 kts 162°
2026-05-08 00:35 -37.92756 144.91320 10118 ft 266 kts 163°
2026-05-08 00:35 -37.94498 144.92231 10440 ft 280 kts 163°
2026-05-08 00:36 -37.96365 144.93198 10583 ft 299 kts 162°
2026-05-08 00:36 -37.98349 144.94221 10734 ft 318 kts 162°
2026-05-08 00:36 -38.00460 144.95310 10985 ft 334 kts 162°
2026-05-08 00:36 -38.02646 144.96439 11431 ft 343 kts 162°
2026-05-08 00:37 -38.04877 144.97594 12034 ft 348 kts 162°
2026-05-08 00:37 -38.07129 144.98759 12706 ft 351 kts 162°
2026-05-08 00:37 -38.09377 144.99921 13388 ft 355 kts 162°
2026-05-08 00:38 -38.13996 145.02307 14691 ft 360 kts 162°
2026-05-08 00:38 -38.16326 145.03510 15276 ft 364 kts 162°
2026-05-08 00:38 -38.18679 145.04725 15847 ft 368 kts 162°
2026-05-08 00:38 -38.21066 145.05957 16415 ft 371 kts 162°
2026-05-08 00:39 -38.23476 145.07204 16997 ft 375 kts 162°
2026-05-08 00:39 -38.25913 145.08464 17579 ft 379 kts 162°
2026-05-08 00:39 -38.28340 145.09721 18142 ft 382 kts 162°
2026-05-08 00:39 -38.30818 145.11005 18666 ft 386 kts 162°
2026-05-08 00:40 -38.33319 145.12303 19160 ft 389 kts 162°
2026-05-08 00:40 -38.35840 145.13611 19676 ft 392 kts 162°
2026-05-08 00:40 -38.38377 145.14929 20177 ft 395 kts 162°
2026-05-08 00:40 -38.40931 145.16257 20672 ft 398 kts 162°
2026-05-08 00:41 -38.43501 145.17595 21153 ft 400 kts 162°
2026-05-08 00:41 -38.46088 145.18942 21652 ft 403 kts 162°
2026-05-08 00:41 -38.48692 145.20298 22129 ft 406 kts 162°
2026-05-08 00:41 -38.51321 145.21660 22594 ft 408 kts 163°
2026-05-08 00:42 -38.53993 145.22920 23054 ft 410 kts 165°
2026-05-08 00:42 -38.56668 145.24090 23504 ft 413 kts 165°
2026-05-08 00:42 -38.59405 145.25260 23935 ft 415 kts 165°
2026-05-08 00:42 -38.62152 145.26434 24318 ft 417 kts 165°
2026-05-08 00:43 -38.64912 145.27623 24777 ft 418 kts 165°
2026-05-08 00:43 -38.67669 145.28821 25249 ft 418 kts 165°
2026-05-08 00:43 -38.70421 145.30026 25684 ft 418 kts 165°
2026-05-08 00:43 -38.73180 145.31239 26050 ft 421 kts 165°
2026-05-08 00:44 -38.75955 145.32462 26382 ft 423 kts 165°
2026-05-08 00:44 -38.78747 145.33695 26736 ft 425 kts 165°
2026-05-08 00:44 -38.81546 145.34933 27090 ft 427 kts 165°
2026-05-08 00:44 -38.84358 145.36179 27438 ft 428 kts 165°
2026-05-08 00:45 -38.87180 145.37429 27780 ft 430 kts 165°
2026-05-08 00:45 -38.89980 145.38671 28120 ft 431 kts 165°
2026-05-08 00:45 -38.92816 145.39930 28472 ft 432 kts 165°
2026-05-08 00:45 -38.95669 145.41197 28767 ft 434 kts 165°
2026-05-08 00:46 -38.98527 145.42468 29055 ft 435 kts 165°
2026-05-08 00:46 -39.04300 145.45036 29195 ft 442 kts 165°
2026-05-08 00:47 -39.10164 145.47650 29186 ft 447 kts 165°
2026-05-08 00:47 -39.15057 145.49837 29184 ft 447 kts 165°
2026-05-08 00:48 -39.21894 145.52898 29201 ft 447 kts 164°
2026-05-08 00:48 -39.27758 145.55527 29170 ft 445 kts 164°
2026-05-08 00:49 -39.32651 145.57725 29159 ft 444 kts 164°
2026-05-08 00:49 -39.38441 145.60328 29162 ft 442 kts 164°
2026-05-08 00:50 -39.44257 145.62948 29163 ft 442 kts 164°
2026-05-08 00:50 -39.50062 145.65567 29164 ft 442 kts 164°
2026-05-08 00:51 -39.55883 145.68198 29159 ft 443 kts 164°
2026-05-08 00:51 -39.61715 145.70839 29151 ft 444 kts 164°
2026-05-08 00:52 -39.67514 145.73470 29152 ft 445 kts 164°
2026-05-08 00:52 -39.73364 145.76129 29143 ft 444 kts 164°
2026-05-08 00:53 -39.79198 145.78786 29131 ft 444 kts 164°
2026-05-08 00:53 -39.85026 145.81445 29174 ft 443 kts 164°
2026-05-08 00:54 -39.90817 145.84092 29137 ft 443 kts 164°
2026-05-08 00:54 -39.96635 145.86755 29131 ft 443 kts 164°
2026-05-08 00:55 -40.02455 145.89428 29122 ft 442 kts 164°
2026-05-08 00:55 -40.08257 145.92117 29132 ft 443 kts 164°
2026-05-08 00:56 -40.14068 145.94818 29129 ft 443 kts 164°
2026-05-08 00:56 -40.19886 145.97526 29127 ft 443 kts 164°
2026-05-08 00:57 -40.25696 146.00234 29121 ft 443 kts 164°
2026-05-08 00:57 -40.31471 146.02930 29117 ft 443 kts 164°
2026-05-08 00:58 -40.37285 146.05649 29115 ft 443 kts 164°
2026-05-08 00:58 -40.43109 146.08378 29110 ft 443 kts 164°
2026-05-08 00:59 -40.48922 146.11107 29126 ft 444 kts 164°
2026-05-08 00:59 -40.54706 146.13828 29103 ft 444 kts 164°
2026-05-08 01:00 -40.60517 146.16566 29095 ft 443 kts 164°
2026-05-08 01:00 -40.66318 146.19305 29097 ft 443 kts 164°
2026-05-08 01:01 -40.72112 146.22044 29105 ft 442 kts 163°
2026-05-08 01:01 -40.77902 146.24780 29085 ft 441 kts 163°
2026-05-08 01:02 -40.83693 146.27522 29074 ft 441 kts 163°
2026-05-08 01:02 -40.89471 146.30263 29074 ft 440 kts 163°
2026-05-08 01:03 -40.95201 146.32987 29073 ft 440 kts 163°
2026-05-08 01:03 -41.00980 146.35740 29065 ft 441 kts 163°
2026-05-08 01:04 -41.06763 146.38500 29060 ft 442 kts 163°
2026-05-08 01:04 -41.12550 146.41267 29062 ft 442 kts 163°
2026-05-08 01:05 -41.18320 146.44167 29044 ft 445 kts 159°
2026-05-08 01:05 -41.23921 146.47712 29057 ft 446 kts 158°
2026-05-08 01:06 -41.29528 146.51275 29053 ft 447 kts 158°
2026-05-08 01:06 -41.35142 146.54828 29073 ft 447 kts 158°
2026-05-08 01:07 -41.40769 146.58389 29019 ft 447 kts 158°
2026-05-08 01:07 -41.46369 146.61938 29033 ft 445 kts 158°
2026-05-08 01:08 -41.51932 146.65472 29034 ft 445 kts 158°
2026-05-08 01:08 -41.57532 146.69035 29041 ft 445 kts 158°
2026-05-08 01:09 -41.63117 146.72596 29049 ft 444 kts 158°
2026-05-08 01:09 -41.68651 146.76145 29037 ft 443 kts 158°
2026-05-08 01:10 -41.74199 146.79736 29040 ft 442 kts 158°
2026-05-08 01:10 -41.79749 146.83338 29076 ft 444 kts 158°
2026-05-08 01:10 -41.82529 146.85143 29364 ft 444 kts 158°
2026-05-08 01:11 -41.85298 146.86943 29832 ft 440 kts 158°
2026-05-08 01:11 -41.88041 146.88728 30287 ft 436 kts 158°
2026-05-08 01:11 -41.90762 146.90502 30643 ft 433 kts 158°
2026-05-08 01:11 -41.93475 146.92269 30876 ft 433 kts 157°
2026-05-08 01:12 -41.96196 146.94042 30976 ft 435 kts 157°
2026-05-08 01:12 -42.01590 146.97565 31009 ft 431 kts 157°
2026-05-08 01:13 -42.06971 147.01086 31045 ft 429 kts 157°
2026-05-08 01:13 -42.12349 147.04611 31033 ft 429 kts 157°
2026-05-08 01:14 -42.17717 147.08137 31042 ft 430 kts 157°
2026-05-08 01:14 -42.23094 147.11674 31033 ft 430 kts 157°
2026-05-08 01:15 -42.28466 147.15214 31037 ft 429 kts 157°
2026-05-08 01:15 -42.33803 147.18739 31039 ft 428 kts 157°
2026-05-08 01:16 -42.39158 147.22282 31040 ft 428 kts 157°
2026-05-08 01:16 -42.44509 147.25829 31016 ft 428 kts 157°
2026-05-08 01:17 -42.49858 147.29383 31024 ft 428 kts 157°
2026-05-08 01:17 -42.55202 147.32941 31027 ft 428 kts 157°
2026-05-08 01:18 -42.60555 147.36510 31060 ft 428 kts 157°
2026-05-08 01:18 -42.65901 147.40082 31031 ft 428 kts 157°
2026-05-08 01:19 -42.71242 147.43658 31005 ft 427 kts 157°
2026-05-08 01:19 -42.76573 147.47233 31025 ft 426 kts 157°
2026-05-08 01:20 -42.81851 147.50786 31055 ft 426 kts 156°
2026-05-08 01:20 -42.86911 147.55094 31033 ft 430 kts 147°
2026-05-08 01:21 -42.91554 147.60267 31016 ft 431 kts 145°
2026-05-08 01:21 -42.96184 147.65458 31010 ft 430 kts 145°
2026-05-08 01:22 -43.00805 147.70628 31015 ft 429 kts 146°
2026-05-08 01:22 -43.05428 147.75802 31008 ft 429 kts 146°
2026-05-08 01:23 -43.10042 147.80973 30993 ft 428 kts 146°
2026-05-08 01:23 -43.14655 147.86154 30999 ft 428 kts 145°
2026-05-08 01:24 -43.19260 147.91335 31022 ft 429 kts 146°
2026-05-08 01:24 -43.23842 147.96501 30997 ft 428 kts 145°
2026-05-08 01:25 -43.28443 148.01701 30987 ft 428 kts 145°
2026-05-08 01:25 -43.33035 148.06901 30977 ft 427 kts 146°
2026-05-08 01:26 -43.37611 148.12092 30986 ft 427 kts 146°
2026-05-08 01:26 -43.42166 148.17270 30978 ft 426 kts 146°
2026-05-08 01:27 -43.46726 148.22464 30971 ft 425 kts 146°
2026-05-08 01:27 -43.51276 148.27658 30966 ft 424 kts 146°
2026-05-08 01:28 -43.55825 148.32860 30968 ft 424 kts 146°
2026-05-08 01:28 -43.60365 148.38063 30962 ft 424 kts 146°
2026-05-08 01:29 -43.64867 148.43232 30945 ft 423 kts 146°
2026-05-08 01:29 -43.69419 148.48470 30957 ft 423 kts 146°
2026-05-08 01:30 -43.73916 148.53654 30958 ft 424 kts 146°
2026-05-08 01:30 -43.78446 148.58889 30952 ft 424 kts 146°
2026-05-08 01:31 -43.82974 148.64130 30944 ft 424 kts 146°
2026-05-08 01:31 -43.87491 148.69371 30943 ft 423 kts 146°
2026-05-08 01:32 -43.92002 148.74614 30951 ft 423 kts 146°
2026-05-08 01:32 -43.95750 148.78980 30939 ft 423 kts 146°
2026-05-08 01:33 -44.00985 148.85089 30931 ft 422 kts 146°
2026-05-08 01:33 -44.04750 148.89492 30934 ft 422 kts 146°
2026-05-08 01:34 -44.09975 148.95614 30936 ft 423 kts 146°
2026-05-08 01:34 -44.13744 149.00040 30937 ft 423 kts 146°
2026-05-08 01:35 -44.18204 149.05288 30927 ft 422 kts 146°
2026-05-08 01:35 -44.22691 149.10577 30927 ft 422 kts 146°
2026-05-08 01:36 -44.27166 149.15864 30926 ft 422 kts 145°
2026-05-08 01:36 -44.31648 149.21169 30903 ft 422 kts 145°
2026-05-08 01:37 -44.36123 149.26478 30913 ft 422 kts 145°
2026-05-08 01:37 -44.40601 149.31800 30919 ft 422 kts 145°
2026-05-08 01:38 -44.45074 149.37128 30934 ft 423 kts 145°
2026-05-08 01:38 -44.49548 149.42469 30913 ft 423 kts 145°
2026-05-08 01:39 -44.53993 149.47787 30906 ft 422 kts 145°
2026-05-08 01:39 -44.58451 149.53131 30897 ft 421 kts 145°
2026-05-08 01:40 -44.62907 149.58483 30925 ft 421 kts 145°
2026-05-08 01:40 -44.67355 149.63837 30902 ft 421 kts 145°
2026-05-08 01:41 -44.71799 149.69197 30894 ft 420 kts 145°
2026-05-08 01:41 -44.76233 149.74557 30896 ft 420 kts 145°
2026-05-08 01:42 -44.80634 149.79888 30914 ft 420 kts 145°
2026-05-08 01:42 -44.85062 149.85263 30891 ft 420 kts 145°
2026-05-08 01:43 -44.89490 149.90649 30881 ft 420 kts 145°
2026-05-08 01:43 -44.93917 149.96044 30882 ft 420 kts 145°
2026-05-08 01:44 -44.98328 150.01434 30865 ft 420 kts 145°
2026-05-08 01:44 -45.02750 150.06846 30876 ft 420 kts 145°
2026-05-08 01:45 -45.07125 150.12214 30870 ft 420 kts 145°
2026-05-08 01:45 -45.11537 150.17637 30863 ft 419 kts 145°
2026-05-08 01:46 -45.15940 150.23061 30868 ft 419 kts 145°
2026-05-08 01:46 -45.20340 150.28493 30865 ft 420 kts 145°
2026-05-08 01:47 -45.24739 150.33936 30854 ft 419 kts 145°
2026-05-08 01:47 -45.29127 150.39376 30860 ft 419 kts 145°
2026-05-08 01:48 -45.35704 150.47553 30851 ft 418 kts 145°
2026-05-08 01:48 -45.40079 150.53006 30857 ft 418 kts 145°
2026-05-08 01:49 -45.44451 150.58468 30853 ft 418 kts 145°
2026-05-08 01:49 -45.48790 150.63899 30833 ft 418 kts 145°
2026-05-08 01:50 -45.53155 150.69375 30840 ft 418 kts 145°
2026-05-08 01:50 -45.57520 150.74862 30843 ft 419 kts 145°
2026-05-08 01:51 -45.61886 150.80363 30840 ft 418 kts 145°
2026-05-08 01:51 -45.66249 150.85873 30833 ft 418 kts 145°
2026-05-08 01:52 -45.70605 150.91385 30822 ft 417 kts 145°
2026-05-08 01:52 -45.74949 150.96895 30856 ft 418 kts 145°
2026-05-08 01:53 -45.79276 151.02392 30831 ft 418 kts 145°
2026-05-08 01:53 -45.83624 151.07931 30826 ft 418 kts 145°
2026-05-08 01:54 -45.87972 151.13480 30822 ft 418 kts 145°
2026-05-08 01:54 -45.92312 151.19032 30822 ft 418 kts 145°
2026-05-08 01:55 -45.96653 151.24597 30827 ft 418 kts 145°
2026-05-08 01:55 -46.00996 151.30177 30817 ft 418 kts 145°
2026-05-08 01:56 -46.05331 151.35761 30813 ft 417 kts 145°
2026-05-08 01:56 -46.09629 151.41307 30815 ft 417 kts 145°
2026-05-08 01:57 -46.13951 151.46896 30811 ft 417 kts 145°
2026-05-08 01:57 -46.18273 151.52497 30798 ft 417 kts 145°
2026-05-08 01:58 -46.22592 151.58108 30801 ft 417 kts 145°
2026-05-08 01:58 -46.26906 151.63725 30800 ft 417 kts 145°
2026-05-08 01:59 -46.31197 151.69323 30824 ft 418 kts 145°
2026-05-08 01:59 -46.35518 151.74972 30804 ft 418 kts 145°
2026-05-08 02:00 -46.39836 151.80632 30785 ft 418 kts 145°
2026-05-08 02:00 -46.44150 151.86299 30791 ft 418 kts 145°
2026-05-08 02:01 -46.48460 151.91973 30784 ft 418 kts 145°
2026-05-08 02:01 -46.52741 151.97620 30799 ft 419 kts 145°
2026-05-08 02:02 -46.57062 152.03334 30782 ft 419 kts 145°
2026-05-08 02:02 -46.61377 152.09053 30779 ft 419 kts 145°
2026-05-08 02:03 -46.65679 152.14769 30773 ft 419 kts 145°
2026-05-08 02:03 -46.69986 152.20502 30774 ft 420 kts 145°
2026-05-08 02:04 -46.74268 152.26216 30771 ft 419 kts 145°
2026-05-08 02:04 -46.78568 152.31967 30765 ft 419 kts 145°
2026-05-08 02:05 -46.82869 152.37731 30760 ft 419 kts 145°
2026-05-08 02:05 -46.87165 152.43502 30758 ft 419 kts 145°
2026-05-08 02:06 -46.91461 152.49287 30760 ft 420 kts 145°
2026-05-08 02:06 -46.95756 152.55083 30755 ft 420 kts 145°
2026-05-08 02:07 -47.00056 152.60899 30747 ft 420 kts 145°
2026-05-08 02:07 -47.04318 152.66679 30748 ft 420 kts 145°
2026-05-08 02:08 -47.08610 152.72511 30754 ft 420 kts 145°
2026-05-08 02:08 -47.12897 152.78349 30748 ft 420 kts 145°
2026-05-08 02:09 -47.17183 152.84200 30735 ft 421 kts 145°
2026-05-08 02:09 -47.21446 152.90033 30739 ft 421 kts 145°
2026-05-08 02:10 -47.25731 152.95909 30735 ft 421 kts 145°
2026-05-08 02:10 -47.30022 153.01807 30729 ft 421 kts 145°
2026-05-08 02:11 -47.34306 153.07711 30719 ft 421 kts 145°
2026-05-08 02:11 -47.38576 153.13609 30722 ft 420 kts 145°
2026-05-08 02:12 -47.42843 153.19516 30708 ft 420 kts 145°
2026-05-08 02:12 -47.47084 153.25400 30735 ft 420 kts 145°
2026-05-08 02:13 -47.51351 153.31333 30726 ft 421 kts 145°
2026-05-08 02:13 -47.55613 153.37273 30714 ft 421 kts 145°
2026-05-08 02:14 -47.59875 153.43230 30715 ft 421 kts 145°
2026-05-08 02:14 -47.64135 153.49197 30707 ft 421 kts 145°
2026-05-08 02:15 -47.68398 153.55181 30711 ft 422 kts 145°
2026-05-08 02:15 -47.72659 153.61177 30703 ft 422 kts 145°
2026-05-08 02:16 -47.76882 153.67135 30694 ft 421 kts 145°
2026-05-08 02:16 -47.81126 153.73137 30689 ft 421 kts 145°
2026-05-08 02:17 -47.85373 153.79154 30728 ft 421 kts 145°
2026-05-08 02:17 -47.89599 153.85158 30702 ft 422 kts 145°
2026-05-08 02:18 -47.93840 153.91198 30692 ft 422 kts 145°
2026-05-08 02:18 -47.98082 153.97254 30693 ft 422 kts 145°
2026-05-08 02:19 -48.02298 154.03378 30684 ft 424 kts 143°
2026-05-08 02:19 -48.06428 154.09682 30684 ft 424 kts 143°
2026-05-08 02:20 -48.10541 154.16014 30681 ft 424 kts 143°
2026-05-08 02:20 -48.13970 154.21282 30681 ft 424 kts 143°
2026-05-08 02:21 -48.18086 154.27601 30673 ft 424 kts 143°
2026-05-08 02:21 -48.22210 154.33939 30676 ft 424 kts 143°
2026-05-08 02:22 -48.26331 154.40284 30675 ft 424 kts 143°
2026-05-08 02:22 -48.30424 154.46604 30666 ft 424 kts 143°
2026-05-08 02:23 -48.34533 154.52966 30662 ft 424 kts 143°
2026-05-08 02:23 -48.38637 154.59335 30654 ft 424 kts 143°
2026-05-08 02:24 -48.42743 154.65722 30681 ft 424 kts 143°
2026-05-08 02:24 -48.46847 154.72120 30657 ft 424 kts 143°
2026-05-08 02:25 -48.50948 154.78531 30659 ft 425 kts 143°
2026-05-08 02:25 -48.55025 154.84922 30631 ft 425 kts 143°
2026-05-08 02:26 -48.59128 154.91368 30630 ft 426 kts 143°
2026-05-08 02:26 -48.63231 154.97830 30636 ft 427 kts 143°
2026-05-08 02:27 -48.67346 155.04326 30640 ft 428 kts 143°
2026-05-08 02:27 -48.71458 155.10837 30629 ft 428 kts 143°
2026-05-08 02:28 -48.75568 155.17361 30626 ft 428 kts 143°
2026-05-08 02:28 -48.79673 155.23893 30625 ft 428 kts 143°
2026-05-08 02:29 -48.83758 155.30407 30626 ft 429 kts 143°
2026-05-08 02:29 -48.87865 155.36975 30619 ft 429 kts 143°
2026-05-08 02:30 -48.91973 155.43562 30613 ft 429 kts 143°
2026-05-08 02:30 -48.96089 155.50178 30612 ft 429 kts 143°
2026-05-08 02:31 -49.00182 155.56773 30639 ft 430 kts 143°
2026-05-08 02:31 -49.04296 155.63418 30613 ft 431 kts 143°
2026-05-08 02:32 -49.08414 155.70090 30597 ft 431 kts 143°
2026-05-08 02:32 -49.12498 155.76722 30605 ft 432 kts 143°
2026-05-08 02:33 -49.16609 155.83417 30594 ft 432 kts 143°
2026-05-08 02:33 -49.20725 155.90132 30598 ft 434 kts 142°
2026-05-08 02:34 -49.24851 155.96885 30590 ft 435 kts 142°
2026-05-08 02:34 -49.28991 156.03680 30597 ft 436 kts 143°
2026-05-08 02:35 -49.33104 156.10449 30578 ft 436 kts 143°
2026-05-08 02:35 -49.37233 156.17264 30608 ft 436 kts 143°
2026-05-08 02:36 -49.41370 156.24103 30585 ft 437 kts 142°
2026-05-08 02:36 -49.45513 156.30974 30572 ft 438 kts 142°
2026-05-08 02:37 -49.49661 156.37872 30569 ft 439 kts 142°
2026-05-08 02:37 -49.53810 156.44791 30561 ft 440 kts 142°
2026-05-08 02:38 -49.57962 156.51731 30567 ft 442 kts 142°
2026-05-08 02:38 -49.62136 156.58726 30558 ft 444 kts 141°
2026-05-08 02:39 -49.66298 156.65723 30565 ft 446 kts 142°
2026-05-08 02:39 -49.70484 156.72784 30541 ft 445 kts 142°
2026-05-08 02:40 -49.74659 156.79844 30547 ft 444 kts 142°
2026-05-08 02:40 -49.78828 156.86909 30531 ft 445 kts 142°
2026-05-08 02:41 -49.83012 156.94017 30542 ft 447 kts 141°
2026-05-08 02:41 -49.87209 157.01169 30535 ft 449 kts 141°
2026-05-08 02:42 -49.91385 157.08306 30534 ft 450 kts 141°
2026-05-08 02:42 -49.95595 157.15523 30532 ft 451 kts 141°
2026-05-08 02:43 -49.99800 157.22753 30523 ft 450 kts 141°
2026-05-08 02:43 -50.03996 157.29989 30535 ft 449 kts 142°
2026-05-08 02:44 -50.08172 157.37210 30522 ft 448 kts 142°
2026-05-08 02:44 -50.12327 157.44412 30522 ft 446 kts 142°
2026-05-08 02:45 -50.16483 157.51629 30517 ft 448 kts 141°
2026-05-08 02:45 -50.20659 157.58903 30517 ft 451 kts 141°
2026-05-08 02:46 -50.24830 157.66191 30512 ft 453 kts 141°
2026-05-08 02:46 -50.29044 157.73580 30500 ft 455 kts 141°
2026-05-08 02:47 -50.33255 157.80987 30532 ft 455 kts 141°
2026-05-08 02:47 -50.37454 157.88389 30503 ft 457 kts 140°
2026-05-08 02:48 -50.41680 157.95864 30510 ft 459 kts 141°
2026-05-08 02:48 -50.45914 158.03374 30479 ft 459 kts 141°
2026-05-08 02:49 -50.50142 158.10898 30489 ft 459 kts 141°
2026-05-08 02:49 -50.54363 158.18425 30483 ft 460 kts 140°
2026-05-08 02:50 -50.58597 158.25999 30484 ft 461 kts 140°
2026-05-08 02:50 -50.62812 158.33562 30474 ft 463 kts 140°
2026-05-08 02:51 -50.67062 158.41212 30470 ft 464 kts 140°
2026-05-08 02:51 -50.71307 158.48877 30501 ft 464 kts 140°
2026-05-08 02:52 -50.75574 158.56597 30469 ft 468 kts 139°
2026-05-08 02:52 -50.79866 158.64392 30466 ft 471 kts 139°
2026-05-08 02:53 -50.84137 158.72177 30450 ft 471 kts 139°
2026-05-08 02:53 -50.88426 158.80020 30446 ft 470 kts 139°
2026-05-08 02:54 -50.92696 158.87845 30440 ft 470 kts 138°
2026-05-08 02:54 -50.96998 158.95749 30449 ft 474 kts 138°
2026-05-08 02:55 -51.03452 159.07658 30442 ft 478 kts 138°
2026-05-08 02:56 -51.07796 159.15710 30426 ft 479 kts 138°
2026-05-08 02:56 -51.12139 159.23781 30423 ft 482 kts 137°
2026-05-08 02:57 -51.16487 159.31888 30442 ft 485 kts 137°
2026-05-08 02:57 -51.20866 159.40084 30424 ft 486 kts 137°
2026-05-08 02:58 -51.25235 159.48288 30408 ft 484 kts 137°
2026-05-08 02:58 -51.29581 159.56472 30437 ft 482 kts 136°
2026-05-08 02:59 -51.33962 159.64732 30415 ft 491 kts 136°
2026-05-08 02:59 -51.38375 159.73091 30401 ft 495 kts 136°
2026-05-08 03:00 -51.42808 159.81527 30394 ft 494 kts 136°
2026-05-08 03:00 -51.47228 159.89963 30389 ft 493 kts 136°
2026-05-08 03:01 -51.51646 159.98415 30395 ft 496 kts 135°
2026-05-08 03:01 -51.56092 160.06950 30388 ft 500 kts 135°
2026-05-08 03:02 -51.60558 160.15554 30375 ft 501 kts 135°
2026-05-08 03:02 -51.65022 160.24187 30366 ft 501 kts 135°
2026-05-08 03:03 -51.69476 160.32828 30373 ft 501 kts 134°
2026-05-08 03:03 -51.73941 160.41514 30375 ft 504 kts 134°
2026-05-08 03:04 -51.78416 160.50252 30369 ft 506 kts 134°
2026-05-08 03:04 -51.82878 160.58997 30364 ft 508 kts 134°
2026-05-08 03:05 -51.87372 160.67836 30362 ft 509 kts 134°
2026-05-08 03:05 -51.91859 160.76692 30348 ft 508 kts 134°
2026-05-08 03:06 -51.96335 160.85558 30350 ft 507 kts 134°
2026-05-08 03:06 -52.00046 160.92928 30342 ft 506 kts 134°
2026-05-08 03:07 -52.04490 161.01785 30344 ft 506 kts 134°
2026-05-08 03:07 -52.08943 161.10683 30340 ft 511 kts 133°
2026-05-08 03:08 -52.13460 161.19744 30338 ft 518 kts 133°
2026-05-08 03:08 -52.17991 161.28873 30327 ft 517 kts 133°
2026-05-08 03:09 -52.22506 161.38005 30322 ft 516 kts 133°
2026-05-08 03:09 -52.26986 161.47092 30319 ft 517 kts 131°
2026-05-08 03:10 -52.31504 161.56287 30320 ft 521 kts 132°
2026-05-08 03:10 -52.36043 161.65562 30320 ft 523 kts 132°
2026-05-08 03:11 -52.40580 161.74869 30306 ft 523 kts 132°
2026-05-08 03:11 -52.45106 161.84186 30300 ft 523 kts 131°
2026-05-08 03:12 -52.49646 161.93562 30301 ft 526 kts 131°
2026-05-08 03:12 -52.54199 162.03005 30303 ft 528 kts 131°
2026-05-08 03:13 -52.58734 162.12445 30293 ft 530 kts 131°
2026-05-08 03:13 -52.63304 162.21993 30291 ft 531 kts 130°
2026-05-08 03:14 -52.67879 162.31584 30320 ft 534 kts 130°
2026-05-08 03:14 -52.72466 162.41244 30286 ft 535 kts 130°
2026-05-08 03:15 -52.77044 162.50918 30270 ft 534 kts 130°
2026-05-08 03:15 -52.81609 162.60602 30272 ft 533 kts 130°
2026-05-08 03:16 -52.86168 162.70307 30270 ft 535 kts 129°
2026-05-08 03:16 -52.90713 162.80025 30268 ft 538 kts 129°
2026-05-08 03:17 -52.95301 162.89872 30269 ft 541 kts 129°
2026-05-08 03:17 -52.99913 162.99768 30264 ft 541 kts 130°
2026-05-08 03:18 -53.04966 163.09063 30309 ft 543 kts 135°
2026-05-08 03:18 -53.10181 163.18214 30246 ft 546 kts 135°
2026-05-08 03:19 -53.15392 163.27434 30247 ft 546 kts 135°
2026-05-08 03:19 -53.20557 163.36690 30231 ft 544 kts 135°
2026-05-08 03:20 -53.25694 163.45964 30218 ft 544 kts 134°
2026-05-08 03:20 -53.30806 163.55225 30244 ft 548 kts 134°
2026-05-08 03:21 -53.35999 163.64664 30226 ft 552 kts 134°
2026-05-08 03:21 -53.41194 163.74141 30244 ft 553 kts 134°
2026-05-08 03:22 -53.46381 163.83637 30199 ft 550 kts 133°
2026-05-08 03:22 -53.51537 163.93116 30214 ft 550 kts 133°
2026-05-08 03:23 -53.56697 164.02639 30222 ft 552 kts 133°
2026-05-08 03:23 -53.61839 164.12165 30216 ft 553 kts 133°
2026-05-08 03:24 -53.67033 164.21826 30214 ft 555 kts 133°
2026-05-08 03:24 -53.72230 164.31530 30262 ft 559 kts 133°
2026-05-08 03:25 -53.77451 164.41321 30205 ft 562 kts 133°
2026-05-08 03:25 -53.82670 164.51146 30194 ft 560 kts 133°
2026-05-08 03:26 -53.87835 164.60907 30184 ft 558 kts 133°
2026-05-08 03:26 -53.93000 164.70709 30185 ft 556 kts 132°
2026-05-08 03:27 -53.98146 164.80513 30185 ft 555 kts 132°
2026-05-08 03:27 -54.03265 164.90306 30175 ft 554 kts 132°
2026-05-08 03:28 -54.08382 165.00134 30223 ft 554 kts 133°
2026-05-08 03:28 -54.13495 165.09992 30157 ft 555 kts 132°
2026-05-08 03:29 -54.18608 165.19893 30175 ft 557 kts 132°
2026-05-08 03:29 -54.23708 165.29808 30177 ft 559 kts 131°
2026-05-08 03:30 -54.31412 165.44864 30163 ft 561 kts 131°
2026-05-08 03:31 -54.41712 165.65137 30230 ft 566 kts 131°
2026-05-08 03:32 -54.49456 165.80492 30157 ft 565 kts 131°
2026-05-08 03:32 -54.54554 165.90653 30137 ft 562 kts 131°
2026-05-08 03:33 -54.59665 166.00882 30146 ft 562 kts 130°
2026-05-08 03:33 -54.64778 166.11158 30160 ft 566 kts 130°
2026-05-08 03:34 -54.69911 166.21520 30139 ft 569 kts 130°
2026-05-08 03:34 -54.75024 166.31884 30139 ft 571 kts 130°
2026-05-08 03:35 -54.80168 166.42355 30135 ft 569 kts 130°
2026-05-08 03:35 -54.85291 166.52829 30132 ft 568 kts 130°
2026-05-08 03:36 -54.90393 166.63306 30131 ft 568 kts 130°
2026-05-08 03:36 -54.95501 166.73840 30132 ft 569 kts 130°
2026-05-08 03:37 -55.00594 166.84387 30098 ft 570 kts 129°
2026-05-08 03:37 -55.05672 166.94950 30128 ft 574 kts 129°
2026-05-08 03:38 -55.10813 167.05693 30192 ft 578 kts 129°
2026-05-08 03:38 -55.15942 167.16454 30113 ft 571 kts 129°
2026-05-08 03:39 -55.21009 167.27133 30094 ft 570 kts 129°
2026-05-08 03:39 -55.26086 167.37883 30118 ft 574 kts 129°
2026-05-08 03:40 -55.31190 167.48736 30124 ft 579 kts 129°
2026-05-08 03:40 -55.36294 167.59638 30128 ft 582 kts 129°
2026-05-08 03:41 -55.41434 167.70667 30107 ft 582 kts 128°
2026-05-08 03:41 -55.46549 167.81690 30108 ft 581 kts 128°
2026-05-08 03:42 -55.51656 167.92747 30109 ft 582 kts 128°
2026-05-08 03:42 -55.56774 168.03880 30110 ft 582 kts 128°
2026-05-08 03:43 -55.61871 168.15017 30111 ft 583 kts 128°
2026-05-08 03:43 -55.66963 168.26195 30093 ft 583 kts 128°
2026-05-08 03:44 -55.72027 168.37363 30124 ft 585 kts 128°
2026-05-08 03:44 -55.77129 168.48665 30187 ft 588 kts 128°
2026-05-08 03:45 -55.82232 168.60023 30117 ft 588 kts 128°
2026-05-08 03:45 -55.87318 168.71397 30076 ft 585 kts 128°
2026-05-08 03:46 -55.92362 168.82731 30110 ft 583 kts 127°
2026-05-08 03:46 -55.97400 168.94105 30112 ft 584 kts 127°
2026-05-08 03:47 -56.02449 169.05498 30120 ft 586 kts 128°
2026-05-08 03:47 -56.07544 169.16783 30107 ft 587 kts 128°
2026-05-08 03:48 -56.12701 169.28181 30186 ft 588 kts 128°
2026-05-08 03:48 -56.17830 169.39614 30093 ft 587 kts 128°
2026-05-08 03:49 -56.22882 169.50962 30104 ft 583 kts 128°
2026-05-08 03:49 -56.27924 169.62354 30102 ft 580 kts 128°
2026-05-08 03:50 -56.32940 169.73733 30106 ft 580 kts 128°
2026-05-08 03:50 -56.37962 169.85178 30127 ft 584 kts 127°
2026-05-08 03:51 -56.43012 169.96741 30124 ft 587 kts 127°
2026-05-08 03:51 -56.48070 170.08377 30135 ft 589 kts 127°
2026-05-08 03:52 -56.53081 170.19959 30089 ft 587 kts 127°
2026-05-08 03:52 -56.58103 170.31624 30106 ft 586 kts 127°
2026-05-08 03:53 -56.63103 170.43295 30120 ft 585 kts 127°
2026-05-08 03:53 -56.68088 170.54986 30114 ft 585 kts 127°
2026-05-08 03:54 -56.72230 170.64744 30090 ft 586 kts 127°
2026-05-08 03:54 -56.77201 170.76508 30174 ft 586 kts 127°
2026-05-08 03:55 -56.82172 170.88330 30129 ft 588 kts 127°
2026-05-08 03:55 -56.87144 171.00208 30118 ft 588 kts 127°
2026-05-08 03:56 -56.92106 171.12124 30125 ft 588 kts 126°
2026-05-08 03:56 -56.97046 171.24048 30109 ft 587 kts 126°
2026-05-08 03:57 -57.01982 171.36019 30121 ft 587 kts 126°
2026-05-08 03:57 -57.06864 171.47918 30132 ft 588 kts 126°
2026-05-08 03:58 -57.11773 171.59942 30168 ft 588 kts 126°
2026-05-08 03:58 -57.16688 171.72042 30076 ft 588 kts 126°
2026-05-08 03:59 -57.21564 171.84107 30126 ft 586 kts 126°
2026-05-08 03:59 -57.26429 171.96205 30129 ft 586 kts 126°
2026-05-08 04:00 -57.31254 172.08265 30133 ft 587 kts 126°
2026-05-08 04:00 -57.36102 172.20440 30129 ft 587 kts 126°
2026-05-08 04:01 -57.40942 172.32660 30121 ft 588 kts 126°
2026-05-08 04:01 -57.45771 172.44915 30154 ft 589 kts 126°
2026-05-08 04:02 -57.50598 172.57226 30136 ft 589 kts 125°
2026-05-08 04:02 -57.55410 172.69559 30133 ft 588 kts 125°
2026-05-08 04:03 -57.60202 172.81910 30110 ft 587 kts 125°
2026-05-08 04:03 -57.67348 173.00442 30141 ft 586 kts 125°
2026-05-08 04:04 -57.72095 173.12834 30145 ft 586 kts 125°
2026-05-08 04:04 -57.76837 173.25275 30182 ft 587 kts 125°
2026-05-08 04:05 -57.81548 173.37700 30119 ft 587 kts 125°
2026-05-08 04:05 -57.86270 173.50220 30146 ft 586 kts 125°
2026-05-08 04:06 -57.90969 173.62742 30141 ft 586 kts 124°
2026-05-08 04:06 -57.95658 173.75305 30150 ft 586 kts 124°
2026-05-08 04:07 -58.00300 173.87809 30140 ft 586 kts 124°
2026-05-08 04:07 -58.04958 174.00421 30140 ft 585 kts 124°
2026-05-08 04:08 -58.09604 174.13066 30155 ft 586 kts 124°
2026-05-08 04:08 -58.14243 174.25760 30142 ft 586 kts 124°
2026-05-08 04:09 -58.18859 174.38458 30146 ft 585 kts 124°
2026-05-08 04:09 -58.23463 174.51191 30148 ft 585 kts 124°
2026-05-08 04:10 -58.28021 174.63863 30150 ft 585 kts 124°
2026-05-08 04:10 -58.32601 174.76668 30151 ft 585 kts 123°
2026-05-08 04:11 -58.37166 174.89497 30157 ft 585 kts 123°
2026-05-08 04:11 -58.41725 175.02380 30131 ft 586 kts 123°
2026-05-08 04:12 -58.46227 175.15173 30152 ft 584 kts 123°
2026-05-08 04:12 -58.50745 175.28075 30154 ft 583 kts 123°
2026-05-08 04:13 -58.55246 175.41003 30154 ft 583 kts 123°
2026-05-08 04:13 -58.59733 175.53962 30165 ft 583 kts 123°
2026-05-08 04:14 -58.64205 175.66947 30138 ft 583 kts 123°
2026-05-08 04:14 -58.68664 175.79965 30156 ft 582 kts 123°
2026-05-08 04:15 -58.73080 175.92928 30173 ft 582 kts 123°
2026-05-08 04:15 -58.77509 176.06003 30169 ft 582 kts 123°
2026-05-08 04:16 -58.81925 176.19112 30150 ft 583 kts 123°
2026-05-08 04:16 -58.86323 176.32240 30167 ft 581 kts 123°
2026-05-08 04:17 -58.90703 176.45388 30178 ft 581 kts 123°
2026-05-08 04:17 -58.95065 176.58553 30178 ft 581 kts 123°
2026-05-08 04:18 -58.99418 176.71766 30233 ft 581 kts 122°
2026-05-08 04:18 -59.03760 176.85021 30144 ft 582 kts 123°
2026-05-08 04:19 -59.08086 176.98302 30177 ft 580 kts 122°
2026-05-08 04:19 -59.12359 177.11490 30170 ft 580 kts 122°
2026-05-08 04:20 -59.16644 177.24793 30176 ft 580 kts 122°
2026-05-08 04:20 -59.20918 177.38139 30176 ft 579 kts 122°
2026-05-08 04:21 -59.25174 177.51506 30172 ft 579 kts 122°
2026-05-08 04:21 -59.29411 177.64888 30179 ft 579 kts 122°
2026-05-08 04:22 -59.33618 177.78249 30198 ft 580 kts 122°
2026-05-08 04:22 -59.37840 177.91738 30187 ft 580 kts 122°
2026-05-08 04:23 -59.42053 178.05277 30176 ft 580 kts 122°
2026-05-08 04:23 -59.46242 178.18818 30184 ft 579 kts 122°
2026-05-08 04:24 -59.50391 178.32303 30177 ft 578 kts 122°
2026-05-08 04:24 -59.54542 178.45879 30188 ft 578 kts 122°
2026-05-08 04:25 -59.58682 178.59493 30184 ft 578 kts 122°
2026-05-08 04:25 -59.62803 178.73131 30149 ft 579 kts 122°
2026-05-08 04:26 -59.66913 178.86811 30178 ft 578 kts 122°
2026-05-08 04:26 -59.71007 179.00517 30192 ft 577 kts 121°
2026-05-08 04:27 -59.75080 179.14233 30180 ft 577 kts 121°
2026-05-08 04:27 -59.79138 179.27982 30187 ft 577 kts 121°
2026-05-08 04:28 -59.83182 179.41765 30459 ft 582 kts 121°
2026-05-08 04:28 -59.85219 179.48741 30864 ft 579 kts 121°
2026-05-08 04:28 -59.87233 179.55659 31255 ft 577 kts 121°
2026-05-08 04:29 -59.89247 179.62593 31644 ft 576 kts 121°
2026-05-08 04:29 -59.91245 179.69497 32019 ft 574 kts 121°
2026-05-08 04:29 -59.93241 179.76417 32175 ft 576 kts 121°
2026-05-08 04:29 -59.95235 179.83346 32166 ft 576 kts 121°
2026-05-08 04:30 -59.99204 179.97200 32172 ft 573 kts 121°
2026-05-08 04:30 -60.03345 -179.89208 32168 ft 571 kts 124°
2026-05-08 04:31 -60.07649 -179.75925 32178 ft 573 kts 125°
2026-05-08 04:31 -60.12001 -179.62494 32184 ft 576 kts 124°
2026-05-08 04:32 -60.16331 -179.48901 32174 ft 578 kts 124°
2026-05-08 04:32 -60.20632 -179.35225 32190 ft 579 kts 124°
2026-05-08 04:33 -60.24913 -179.21518 32168 ft 577 kts 124°
2026-05-08 04:33 -60.29138 -179.07928 32158 ft 574 kts 124°
2026-05-08 04:34 -60.33357 -178.94286 32160 ft 572 kts 123°
2026-05-08 04:34 -60.37548 -178.80657 32169 ft 570 kts 123°
2026-05-08 04:35 -60.41722 -178.67005 32165 ft 571 kts 123°
2026-05-08 04:35 -60.45884 -178.53307 32240 ft 571 kts 123°
2026-05-08 04:36 -60.50046 -178.39531 32163 ft 573 kts 123°
2026-05-08 04:36 -60.54168 -178.25800 32156 ft 572 kts 123°
2026-05-08 04:37 -60.58316 -178.11900 32160 ft 571 kts 123°
2026-05-08 04:37 -60.62389 -177.98169 32150 ft 570 kts 123°
2026-05-08 04:38 -60.66465 -177.84348 32153 ft 568 kts 123°
2026-05-08 04:38 -60.70530 -177.70478 32161 ft 569 kts 123°
2026-05-08 04:39 -60.74579 -177.56583 32207 ft 569 kts 122°
2026-05-08 04:39 -60.78618 -177.42635 32153 ft 569 kts 122°
2026-05-08 04:40 -60.82609 -177.28766 32146 ft 567 kts 122°
2026-05-08 04:40 -60.86600 -177.14813 32137 ft 565 kts 122°
2026-05-08 04:41 -60.90565 -177.00868 32139 ft 564 kts 122°
2026-05-08 04:41 -60.93843 -176.89273 32144 ft 564 kts 122°
2026-05-08 04:42 -60.97774 -176.75294 32140 ft 564 kts 122°
2026-05-08 04:42 -61.01696 -176.61260 32195 ft 565 kts 122°
2026-05-08 04:43 -61.05580 -176.47269 32115 ft 564 kts 122°
2026-05-08 04:43 -61.09457 -176.33220 32123 ft 562 kts 122°
2026-05-08 04:44 -61.13310 -176.19172 32131 ft 561 kts 121°
2026-05-08 04:44 -61.17142 -176.05112 32132 ft 560 kts 121°
2026-05-08 04:45 -61.20963 -175.91006 32134 ft 561 kts 121°
2026-05-08 04:45 -61.24774 -175.76848 32117 ft 561 kts 121°
2026-05-08 04:46 -61.28566 -175.62673 32184 ft 562 kts 121°
2026-05-08 04:46 -61.32348 -175.48443 32129 ft 560 kts 121°
2026-05-08 04:47 -61.36097 -175.34245 32131 ft 558 kts 121°
2026-05-08 04:47 -61.39816 -175.20074 32128 ft 556 kts 121°
2026-05-08 04:48 -61.43508 -175.05918 32108 ft 554 kts 121°
2026-05-08 04:48 -61.47164 -174.91808 32145 ft 556 kts 121°
2026-05-08 04:49 -61.50836 -174.77551 32141 ft 558 kts 120°
2026-05-08 04:49 -61.54518 -174.63162 32157 ft 560 kts 120°
2026-05-08 04:50 -61.58194 -174.48698 32145 ft 562 kts 120°
2026-05-08 04:50 -61.61863 -174.34169 32140 ft 563 kts 120°
2026-05-08 04:51 -61.65513 -174.19613 32142 ft 562 kts 120°
2026-05-08 04:51 -61.69130 -174.05100 32148 ft 562 kts 120°
2026-05-08 04:52 -61.72754 -173.90463 32156 ft 563 kts 120°
2026-05-08 04:52 -61.76371 -173.75755 32154 ft 563 kts 120°
2026-05-08 04:53 -61.79937 -173.61157 32205 ft 562 kts 119°
2026-05-08 04:53 -61.83499 -173.46474 32158 ft 559 kts 120°
2026-05-08 04:54 -61.87026 -173.31838 32156 ft 556 kts 120°
2026-05-08 04:54 -61.90518 -173.17252 32159 ft 554 kts 119°
2026-05-08 04:55 -61.93994 -173.02637 32167 ft 554 kts 119°
2026-05-08 04:55 -61.97460 -172.87969 32170 ft 555 kts 119°
2026-05-08 04:56 -62.00892 -172.73340 32144 ft 557 kts 119°
2026-05-08 04:56 -62.04338 -172.58553 32218 ft 557 kts 119°
2026-05-08 04:57 -62.07769 -172.43729 32166 ft 557 kts 119°
2026-05-08 04:57 -62.11182 -172.28876 32155 ft 555 kts 118°
2026-05-08 04:58 -62.14567 -172.14041 32159 ft 553 kts 118°
2026-05-08 04:58 -62.17903 -171.99327 32157 ft 552 kts 118°
2026-05-08 04:59 -62.21235 -171.84528 32162 ft 552 kts 118°
2026-05-08 04:59 -62.24556 -171.69676 32164 ft 552 kts 118°
2026-05-08 05:00 -62.27864 -171.54775 32212 ft 553 kts 118°
2026-05-08 05:00 -62.31159 -171.39831 32158 ft 554 kts 117°
2026-05-08 05:01 -62.34438 -171.24846 32158 ft 552 kts 117°
2026-05-08 05:01 -62.37692 -171.09871 32149 ft 551 kts 117°
2026-05-08 05:02 -62.40908 -170.94970 32150 ft 550 kts 117°
2026-05-08 05:02 -62.44123 -170.79968 32147 ft 550 kts 117°
2026-05-08 05:03 -62.47320 -170.64937 32146 ft 550 kts 117°
2026-05-08 05:03 -62.50502 -170.49876 32200 ft 551 kts 117°
2026-05-08 05:04 -62.53671 -170.34763 32132 ft 551 kts 117°
2026-05-08 05:04 -62.56823 -170.19617 32128 ft 550 kts 116°
2026-05-08 05:05 -62.59946 -170.04499 32123 ft 549 kts 116°
2026-05-08 05:05 -62.63032 -169.89456 32127 ft 548 kts 116°
2026-05-08 05:06 -62.66116 -169.74315 32116 ft 548 kts 116°
2026-05-08 05:06 -62.69189 -169.59110 32114 ft 548 kts 116°
2026-05-08 05:07 -62.72249 -169.43857 32119 ft 548 kts 116°
2026-05-08 05:07 -62.75293 -169.28575 32112 ft 549 kts 116°
2026-05-08 05:08 -62.78288 -169.13419 32095 ft 546 kts 116°
2026-05-08 05:08 -62.81276 -168.98182 32088 ft 543 kts 115°
2026-05-08 05:09 -62.84233 -168.82993 32081 ft 541 kts 115°
2026-05-08 05:09 -62.87165 -168.67822 32075 ft 540 kts 115°
2026-05-08 05:10 -62.91537 -168.44985 32072 ft 543 kts 115°
2026-05-08 05:11 -62.94445 -168.29642 32073 ft 545 kts 115°
2026-05-08 05:11 -62.97324 -168.14336 32062 ft 547 kts 115°
2026-05-08 05:12 -63.00212 -167.98879 32088 ft 543 kts 115°
2026-05-08 05:12 -63.03226 -167.83628 32061 ft 540 kts 117°
2026-05-08 05:13 -63.06341 -167.68529 32060 ft 540 kts 117°
2026-05-08 05:13 -63.09432 -167.53377 32027 ft 541 kts 117°
2026-05-08 05:14 -63.12477 -167.38161 32027 ft 542 kts 116°
2026-05-08 05:14 -63.15480 -167.22962 32030 ft 543 kts 116°
2026-05-08 05:15 -63.18490 -167.07608 32033 ft 544 kts 116°
2026-05-08 05:15 -63.21487 -166.92215 32020 ft 544 kts 116°
2026-05-08 05:16 -63.24469 -166.76796 32016 ft 543 kts 116°
2026-05-08 05:16 -63.27428 -166.61374 32011 ft 543 kts 116°
2026-05-08 05:17 -63.30373 -166.45908 32010 ft 543 kts 115°
2026-05-08 05:17 -63.33299 -166.30422 32008 ft 543 kts 115°
2026-05-08 05:18 -63.36209 -166.14899 31995 ft 543 kts 115°
2026-05-08 05:18 -63.39102 -165.99344 32009 ft 543 kts 115°
2026-05-08 05:19 -63.41980 -165.83749 32004 ft 543 kts 115°
2026-05-08 05:19 -63.44835 -165.68156 32008 ft 542 kts 115°
2026-05-08 05:20 -63.47655 -165.52628 32011 ft 542 kts 115°
2026-05-08 05:20 -63.50476 -165.36976 32007 ft 542 kts 115°
2026-05-08 05:21 -63.53279 -165.21295 32000 ft 542 kts 114°
2026-05-08 05:21 -63.56067 -165.05569 32004 ft 541 kts 114°
2026-05-08 05:22 -63.58837 -164.89818 32041 ft 543 kts 114°
2026-05-08 05:22 -63.61595 -164.74009 32012 ft 543 kts 114°
2026-05-08 05:23 -63.64319 -164.58262 32009 ft 543 kts 114°
2026-05-08 05:23 -63.67039 -164.42407 32007 ft 543 kts 114°
2026-05-08 05:24 -63.69743 -164.26512 31998 ft 542 kts 114°
2026-05-08 05:24 -63.72423 -164.10628 32004 ft 542 kts 113°
2026-05-08 05:25 -63.75087 -163.94706 32005 ft 542 kts 113°
2026-05-08 05:25 -63.77735 -163.78743 32006 ft 542 kts 113°
2026-05-08 05:26 -63.80364 -163.62758 32002 ft 542 kts 113°
2026-05-08 05:26 -63.82977 -163.46730 32003 ft 543 kts 113°
2026-05-08 05:27 -63.85574 -163.30668 32003 ft 543 kts 112°
2026-05-08 05:27 -63.87720 -163.17286 32003 ft 543 kts 112°
2026-05-08 05:28 -63.90702 -162.98521 32003 ft 543 kts 112°
2026-05-08 05:28 -63.92839 -162.84962 32006 ft 543 kts 112°
2026-05-08 05:29 -63.95354 -162.68866 32056 ft 544 kts 112°
2026-05-08 05:29 -63.97876 -162.52584 32000 ft 545 kts 112°
2026-05-08 05:30 -64.00377 -162.36288 31999 ft 545 kts 112°
2026-05-08 05:30 -64.02861 -162.19958 31995 ft 545 kts 111°
2026-05-08 05:31 -64.05327 -162.03593 31995 ft 545 kts 111°
2026-05-08 05:31 -64.07772 -161.87215 31993 ft 545 kts 111°
2026-05-08 05:32 -64.10200 -161.70801 31990 ft 545 kts 111°
2026-05-08 05:32 -64.12609 -161.54362 31963 ft 544 kts 111°
2026-05-08 05:33 -64.14984 -161.38003 31987 ft 545 kts 111°
2026-05-08 05:33 -64.17358 -161.21494 31988 ft 545 kts 110°
2026-05-08 05:34 -64.19715 -161.04943 31985 ft 545 kts 110°
2026-05-08 05:34 -64.22053 -160.88369 31984 ft 545 kts 110°
2026-05-08 05:35 -64.24371 -160.71770 31977 ft 545 kts 110°
2026-05-08 05:35 -64.26655 -160.55253 31968 ft 545 kts 110°
2026-05-08 05:36 -64.28935 -160.38609 31982 ft 544 kts 110°
2026-05-08 05:36 -64.31196 -160.21938 31977 ft 546 kts 109°
2026-05-08 05:37 -64.33441 -160.05211 31981 ft 546 kts 109°
2026-05-08 05:37 -64.35666 -159.88465 31981 ft 546 kts 109°
2026-05-08 05:38 -64.37871 -159.71696 31964 ft 546 kts 109°
2026-05-08 05:38 -64.40045 -159.55000 31967 ft 545 kts 109°
2026-05-08 05:39 -64.42210 -159.38193 31967 ft 544 kts 108°
2026-05-08 05:39 -64.44359 -159.21336 31967 ft 544 kts 108°
2026-05-08 05:40 -64.46467 -159.04622 31985 ft 545 kts 108°
2026-05-08 05:40 -64.48578 -158.87713 31972 ft 545 kts 108°
2026-05-08 05:41 -64.50673 -158.70744 31963 ft 546 kts 108°
2026-05-08 05:41 -64.52744 -158.53789 31957 ft 545 kts 108°
2026-05-08 05:42 -64.54781 -158.36924 31962 ft 544 kts 107°
2026-05-08 05:42 -64.56808 -158.19957 31964 ft 544 kts 107°
2026-05-08 05:43 -64.58814 -158.02981 31957 ft 544 kts 107°
2026-05-08 05:43 -64.60802 -157.85970 32011 ft 544 kts 107°
2026-05-08 05:44 -64.62775 -157.68895 31934 ft 546 kts 107°
2026-05-08 05:44 -64.64725 -157.51814 31953 ft 544 kts 107°
2026-05-08 05:45 -64.66651 -157.34748 31956 ft 544 kts 106°
2026-05-08 05:45 -64.68544 -157.17776 31960 ft 543 kts 106°
2026-05-08 05:46 -64.70429 -157.00687 31959 ft 543 kts 106°
2026-05-08 05:46 -64.72293 -156.83579 31957 ft 543 kts 106°
2026-05-08 05:47 -64.74138 -156.66446 31984 ft 543 kts 105°
2026-05-08 05:47 -64.75963 -156.49287 31959 ft 543 kts 105°
2026-05-08 05:48 -64.77769 -156.32089 31966 ft 542 kts 105°
2026-05-08 05:48 -64.79553 -156.14899 31963 ft 542 kts 105°
2026-05-08 05:49 -64.81305 -155.97805 31957 ft 542 kts 105°
2026-05-08 05:49 -64.83048 -155.80580 31958 ft 542 kts 105°
2026-05-08 05:50 -64.84771 -155.63333 31935 ft 541 kts 104°
2026-05-08 05:50 -64.86472 -155.46089 31959 ft 541 kts 104°
2026-05-08 05:51 -64.88155 -155.28794 31965 ft 543 kts 104°
2026-05-08 05:51 -64.89820 -155.11459 31967 ft 542 kts 104°
2026-05-08 05:52 -64.91466 -154.94099 31949 ft 542 kts 104°
2026-05-08 05:52 -64.93079 -154.76840 31951 ft 542 kts 104°
2026-05-08 05:53 -64.94679 -154.59496 31943 ft 541 kts 104°
2026-05-08 05:53 -64.96258 -154.42132 31957 ft 541 kts 103°
2026-05-08 05:54 -64.97818 -154.24749 31969 ft 541 kts 103°
2026-05-08 05:54 -64.99350 -154.07451 32006 ft 542 kts 103°
2026-05-08 05:55 -65.00838 -153.89950 31964 ft 542 kts 102°
2026-05-08 05:55 -65.02174 -153.72351 31968 ft 542 kts 101°
2026-05-08 05:56 -65.03463 -153.54765 31969 ft 542 kts 101°
2026-05-08 05:56 -65.04744 -153.37265 31968 ft 542 kts 101°
2026-05-08 05:57 -65.06025 -153.19666 31969 ft 542 kts 101°
2026-05-08 05:57 -65.07288 -153.02063 31972 ft 542 kts 101°
2026-05-08 05:58 -65.08529 -152.84448 32020 ft 542 kts 101°
2026-05-08 05:58 -65.09751 -152.66771 31971 ft 543 kts 100°
2026-05-08 05:59 -65.10953 -152.49059 31973 ft 543 kts 100°
2026-05-08 05:59 -65.12134 -152.31343 31969 ft 543 kts 100°
2026-05-08 06:00 -65.13293 -152.13609 31976 ft 543 kts 100°
2026-05-08 06:00 -65.14425 -151.95967 31981 ft 543 kts 100°
2026-05-08 06:01 -65.15543 -151.78199 31983 ft 543 kts 99°
2026-05-08 06:01 -65.16639 -151.60439 31954 ft 543 kts 99°
2026-05-08 06:02 -65.17714 -151.42652 31980 ft 543 kts 99°
2026-05-08 06:02 -65.18770 -151.24834 31981 ft 543 kts 99°
2026-05-08 06:03 -65.19802 -151.07030 31978 ft 543 kts 99°
2026-05-08 06:03 -65.20808 -150.89316 31989 ft 543 kts 99°
2026-05-08 06:04 -65.21800 -150.71466 31986 ft 543 kts 98°
2026-05-08 06:04 -65.22770 -150.53607 31969 ft 543 kts 98°
2026-05-08 06:05 -65.23720 -150.35721 31993 ft 543 kts 98°
2026-05-08 06:05 -65.24647 -150.17839 32023 ft 543 kts 98°
2026-05-08 06:06 -65.25555 -149.99917 31998 ft 544 kts 98°
2026-05-08 06:06 -65.26441 -149.82001 31992 ft 544 kts 98°
2026-05-08 06:07 -65.27306 -149.64046 32000 ft 543 kts 98°
2026-05-08 06:07 -65.28148 -149.46133 31983 ft 542 kts 98°
2026-05-08 06:08 -65.28962 -149.28348 32005 ft 542 kts 98°
2026-05-08 06:08 -65.29761 -149.10419 32001 ft 543 kts 97°
2026-05-08 06:09 -65.30540 -148.92437 32000 ft 543 kts 97°
2026-05-08 06:09 -65.31299 -148.74421 32029 ft 544 kts 97°
2026-05-08 06:10 -65.32037 -148.56382 32008 ft 544 kts 97°
2026-05-08 06:10 -65.32752 -148.38363 31996 ft 544 kts 97°
2026-05-08 06:11 -65.33442 -148.20432 32002 ft 544 kts 97°
2026-05-08 06:11 -65.34115 -148.02400 32009 ft 544 kts 97°
2026-05-08 06:12 -65.34766 -147.84340 32002 ft 544 kts 97°
2026-05-08 06:12 -65.35396 -147.66277 32014 ft 544 kts 96°
2026-05-08 06:13 -65.36005 -147.48160 32011 ft 544 kts 96°
2026-05-08 06:13 -65.36588 -147.30165 32007 ft 545 kts 97°
2026-05-08 06:14 -65.37155 -147.12022 32014 ft 546 kts 96°
2026-05-08 06:14 -65.37610 -146.96910 32010 ft 546 kts 96°
2026-05-08 06:15 -65.38137 -146.78737 32005 ft 546 kts 96°
2026-05-08 06:15 -65.38642 -146.60548 32009 ft 546 kts 96°
2026-05-08 06:16 -65.39126 -146.42333 32008 ft 546 kts 96°
2026-05-08 06:16 -65.39587 -146.24143 32001 ft 546 kts 96°
2026-05-08 06:17 -65.40235 -145.96953 32031 ft 547 kts 96°
2026-05-08 06:17 -65.40643 -145.78700 32010 ft 546 kts 96°
2026-05-08 06:18 -65.41027 -145.60510 32000 ft 545 kts 96°
2026-05-08 06:18 -65.41387 -145.42463 32009 ft 544 kts 95°
2026-05-08 06:19 -65.41726 -145.24339 32007 ft 543 kts 95°
2026-05-08 06:19 -65.42044 -145.06200 32015 ft 543 kts 95°
2026-05-08 06:20 -65.42341 -144.88051 32020 ft 543 kts 95°
2026-05-08 06:20 -65.42616 -144.69883 32083 ft 544 kts 95°
2026-05-08 06:21 -65.42870 -144.51648 32015 ft 546 kts 95°
2026-05-08 06:21 -65.43100 -144.33520 32010 ft 545 kts 95°
2026-05-08 06:22 -65.43309 -144.15279 32006 ft 545 kts 95°
2026-05-08 06:22 -65.43497 -143.97072 32016 ft 544 kts 95°
2026-05-08 06:23 -65.43663 -143.78862 32010 ft 544 kts 94°
2026-05-08 06:23 -65.43806 -143.60745 32005 ft 544 kts 94°
2026-05-08 06:24 -65.43928 -143.42526 32017 ft 545 kts 94°
2026-05-08 06:24 -65.44029 -143.24298 32047 ft 545 kts 94°
2026-05-08 06:25 -65.44107 -143.06107 32006 ft 543 kts 93°
2026-05-08 06:25 -65.44162 -142.87954 32015 ft 542 kts 93°
2026-05-08 06:26 -65.44197 -142.69855 32018 ft 541 kts 93°
2026-05-08 06:26 -65.44210 -142.51926 32012 ft 540 kts 93°
2026-05-08 06:27 -65.44202 -142.33870 32018 ft 540 kts 92°
2026-05-08 06:27 -65.44172 -142.15769 32018 ft 541 kts 92°
2026-05-08 06:28 -65.44120 -141.97653 32076 ft 542 kts 92°
2026-05-08 06:28 -65.44047 -141.79531 32022 ft 541 kts 92°
2026-05-08 06:29 -65.43951 -141.61459 32025 ft 539 kts 92°
2026-05-08 06:29 -65.43836 -141.43602 32021 ft 537 kts 91°
2026-05-08 06:30 -65.43699 -141.25666 32023 ft 536 kts 91°
2026-05-08 06:30 -65.43542 -141.07759 32020 ft 536 kts 91°
2026-05-08 06:31 -65.43364 -140.89843 32036 ft 536 kts 91°
2026-05-08 06:31 -65.43165 -140.72016 32029 ft 537 kts 91°
2026-05-08 06:32 -65.42944 -140.54059 32074 ft 538 kts 90°
2026-05-08 06:32 -65.42701 -140.36101 32037 ft 537 kts 90°
2026-05-08 06:33 -65.42436 -140.18163 32012 ft 535 kts 90°
2026-05-08 06:33 -65.42151 -140.00316 32019 ft 533 kts 90°
2026-05-08 06:34 -65.41848 -139.82538 32031 ft 533 kts 90°
2026-05-08 06:34 -65.41524 -139.64763 32019 ft 533 kts 90°
2026-05-08 06:35 -65.41178 -139.46965 32023 ft 533 kts 90°
2026-05-08 06:35 -65.40814 -139.29284 32020 ft 534 kts 89°
2026-05-08 06:36 -65.40425 -139.11431 32023 ft 535 kts 89°
2026-05-08 06:36 -65.40014 -138.93613 32016 ft 533 kts 89°
2026-05-08 06:37 -65.39589 -138.76014 32018 ft 530 kts 89°
2026-05-08 06:37 -65.39142 -138.58378 32008 ft 529 kts 89°
2026-05-08 06:38 -65.38675 -138.40756 32019 ft 528 kts 88°
2026-05-08 06:38 -65.38189 -138.23182 32020 ft 528 kts 88°
2026-05-08 06:39 -65.37680 -138.05550 32013 ft 529 kts 88°
2026-05-08 06:39 -65.37152 -137.87961 32024 ft 530 kts 88°
2026-05-08 06:40 -65.36602 -137.70322 32016 ft 531 kts 88°
2026-05-08 06:40 -65.36034 -137.52781 32022 ft 531 kts 88°
2026-05-08 06:41 -65.35440 -137.35104 32021 ft 532 kts 87°
2026-05-08 06:41 -65.34827 -137.17453 32018 ft 532 kts 87°
2026-05-08 06:42 -65.34193 -136.99799 32020 ft 532 kts 87°
2026-05-08 06:42 -65.33537 -136.82145 32022 ft 531 kts 87°
2026-05-08 06:43 -65.32863 -136.64541 32038 ft 531 kts 86°
2026-05-08 06:43 -65.32168 -136.46943 32066 ft 531 kts 86°
2026-05-08 06:44 -65.31459 -136.29502 32034 ft 529 kts 86°
2026-05-08 06:44 -65.30727 -136.12014 32027 ft 527 kts 86°
2026-05-08 06:45 -65.29977 -135.94601 32023 ft 525 kts 85°
2026-05-08 06:45 -65.29211 -135.77271 32032 ft 524 kts 85°
2026-05-08 06:46 -65.28426 -135.59953 32047 ft 524 kts 85°
2026-05-08 06:46 -65.27620 -135.42637 32042 ft 525 kts 85°
2026-05-08 06:47 -65.26799 -135.25426 32035 ft 526 kts 85°
2026-05-08 06:47 -65.25950 -135.08058 32085 ft 526 kts 84°
2026-05-08 06:48 -65.25079 -134.90685 32045 ft 525 kts 84°
2026-05-08 06:48 -65.24193 -134.73417 32037 ft 523 kts 84°
2026-05-08 06:49 -65.23291 -134.56219 32051 ft 522 kts 84°
2026-05-08 06:49 -65.22371 -134.39073 32052 ft 521 kts 84°
2026-05-08 06:50 -65.21438 -134.22038 32051 ft 521 kts 83°
2026-05-08 06:50 -65.20477 -134.04866 32054 ft 522 kts 83°
2026-05-08 06:51 -65.19497 -133.87717 32054 ft 523 kts 83°
2026-05-08 06:51 -65.18495 -133.70534 32070 ft 523 kts 83°
2026-05-08 06:52 -65.17480 -133.53496 32051 ft 522 kts 82°
2026-05-08 06:52 -65.16442 -133.36392 32045 ft 521 kts 82°
2026-05-08 06:53 -65.15386 -133.19335 32047 ft 521 kts 82°
2026-05-08 06:53 -65.14312 -133.02308 32052 ft 520 kts 82°
2026-05-08 06:54 -65.13220 -132.85318 32053 ft 520 kts 82°
2026-05-08 06:54 -65.12108 -132.68329 32047 ft 520 kts 82°
2026-05-08 06:55 -65.10986 -132.51477 32060 ft 520 kts 82°
2026-05-08 06:55 -65.09835 -132.34497 32059 ft 521 kts 81°
2026-05-08 06:56 -65.08666 -132.17557 32056 ft 520 kts 81°
2026-05-08 06:56 -65.07479 -132.00650 32057 ft 519 kts 81°
2026-05-08 06:57 -65.06276 -131.83801 32058 ft 518 kts 81°
2026-05-08 06:57 -65.05056 -131.66986 32057 ft 517 kts 80°
2026-05-08 06:58 -65.03819 -131.50207 32062 ft 517 kts 80°
2026-05-08 06:58 -65.02571 -131.33548 32067 ft 517 kts 80°
2026-05-08 06:59 -65.01295 -131.16779 32067 ft 518 kts 80°
2026-05-08 06:59 -65.00002 -130.99997 32069 ft 518 kts 79°
2026-05-08 07:00 -64.98689 -130.83251 32072 ft 518 kts 79°
2026-05-08 07:00 -64.97364 -130.66554 32068 ft 517 kts 79°
2026-05-08 07:01 -64.96033 -130.49985 32079 ft 516 kts 79°
2026-05-08 07:01 -64.94677 -130.33360 32077 ft 516 kts 79°
2026-05-08 07:02 -64.93526 -130.19440 32079 ft 516 kts 78°
2026-05-08 07:02 -64.91907 -130.00143 32083 ft 516 kts 78°
2026-05-08 07:03 -64.90725 -129.86250 32081 ft 516 kts 78°
2026-05-08 07:03 -64.89307 -129.69794 32083 ft 516 kts 78°
2026-05-08 07:04 -64.87864 -129.53280 32090 ft 515 kts 78°
2026-05-08 07:04 -64.86399 -129.36752 32094 ft 515 kts 77°
2026-05-08 07:05 -64.84920 -129.20275 32092 ft 514 kts 77°
2026-05-08 07:05 -64.83432 -129.03927 32089 ft 514 kts 77°
2026-05-08 07:06 -64.81916 -128.87485 32097 ft 514 kts 77°
2026-05-08 07:06 -64.80384 -128.71079 32085 ft 514 kts 77°
2026-05-08 07:07 -64.78834 -128.54696 32105 ft 514 kts 77°
2026-05-08 07:07 -64.77265 -128.38327 32104 ft 514 kts 76°
2026-05-08 07:08 -64.75680 -128.21992 32102 ft 514 kts 76°
2026-05-08 07:08 -64.74075 -128.05656 32106 ft 513 kts 76°
2026-05-08 07:09 -64.72463 -127.89457 32106 ft 513 kts 76°
2026-05-08 07:09 -64.70826 -127.73196 32096 ft 513 kts 76°
2026-05-08 07:10 -64.69174 -127.56984 32111 ft 512 kts 76°
2026-05-08 07:10 -64.67504 -127.40786 32112 ft 513 kts 75°
2026-05-08 07:11 -64.65814 -127.24598 32128 ft 513 kts 75°
2026-05-08 07:11 -64.64118 -127.08528 32110 ft 513 kts 75°
2026-05-08 07:12 -64.62395 -126.92394 32117 ft 512 kts 75°
2026-05-08 07:12 -64.60656 -126.76292 32104 ft 512 kts 75°
2026-05-08 07:13 -64.58901 -126.60221 32121 ft 512 kts 75°
2026-05-08 07:13 -64.57127 -126.44169 32117 ft 512 kts 74°
2026-05-08 07:14 -64.55338 -126.28150 32117 ft 512 kts 74°
2026-05-08 07:14 -64.53531 -126.12150 32125 ft 512 kts 74°
2026-05-08 07:15 -64.51717 -125.96257 32136 ft 512 kts 74°
2026-05-08 07:15 -64.49873 -125.80278 32104 ft 512 kts 74°
2026-05-08 07:16 -64.48013 -125.64327 32124 ft 511 kts 73°
2026-05-08 07:16 -64.46142 -125.48453 32130 ft 511 kts 73°
2026-05-08 07:17 -64.44249 -125.32562 32129 ft 511 kts 73°
2026-05-08 07:17 -64.42339 -125.16697 32127 ft 511 kts 73°
2026-05-08 07:18 -64.40427 -125.00974 32132 ft 511 kts 73°
2026-05-08 07:18 -64.38483 -124.85143 32103 ft 511 kts 73°
2026-05-08 07:19 -64.36521 -124.69333 32127 ft 511 kts 73°
2026-05-08 07:19 -64.34546 -124.53579 32135 ft 511 kts 72°
2026-05-08 07:20 -64.32564 -124.37923 32143 ft 511 kts 72°
2026-05-08 07:20 -64.30553 -124.22192 32128 ft 511 kts 72°
2026-05-08 07:21 -64.28525 -124.06485 32128 ft 511 kts 72°
2026-05-08 07:21 -64.26482 -123.90815 32150 ft 511 kts 72°
2026-05-08 07:22 -64.24419 -123.75147 32137 ft 511 kts 72°
2026-05-08 07:22 -64.22344 -123.59530 32137 ft 511 kts 72°
2026-05-08 07:23 -64.20247 -123.43906 32145 ft 511 kts 72°
2026-05-08 07:23 -64.18135 -123.28314 32146 ft 511 kts 71°
2026-05-08 07:24 -64.16021 -123.12846 32134 ft 511 kts 71°
2026-05-08 07:24 -64.13876 -122.97305 32126 ft 511 kts 71°
2026-05-08 07:25 -64.11717 -122.81801 32132 ft 511 kts 71°
2026-05-08 07:26 -64.08446 -122.58576 32132 ft 511 kts 71°
2026-05-08 07:26 -64.06245 -122.43124 32141 ft 511 kts 71°
2026-05-08 07:27 -64.04041 -122.27789 32168 ft 511 kts 70°
2026-05-08 07:27 -64.01810 -122.12389 32139 ft 511 kts 71°
2026-05-08 07:28 -63.99556 -121.96995 32142 ft 511 kts 70°
2026-05-08 07:28 -63.97211 -121.81694 32139 ft 511 kts 69°
2026-05-08 07:29 -63.94830 -121.66525 32141 ft 512 kts 69°
2026-05-08 07:29 -63.92422 -121.51253 32139 ft 512 kts 69°
2026-05-08 07:30 -63.90008 -121.35995 32140 ft 513 kts 69°
2026-05-08 07:30 -63.87581 -121.20758 32150 ft 513 kts 69°
2026-05-08 07:31 -63.85154 -121.05647 32151 ft 513 kts 69°
2026-05-08 07:31 -63.82695 -120.90472 32145 ft 513 kts 69°
2026-05-08 07:32 -63.80215 -120.75288 32144 ft 513 kts 69°
2026-05-08 07:32 -63.77721 -120.60150 32148 ft 513 kts 69°
2026-05-08 07:33 -63.75208 -120.45015 32141 ft 513 kts 69°
2026-05-08 07:33 -63.72685 -120.29941 32143 ft 513 kts 68°
2026-05-08 07:34 -63.70147 -120.14893 32146 ft 513 kts 68°
2026-05-08 07:34 -63.67609 -119.99973 32144 ft 513 kts 68°
2026-05-08 07:35 -63.65040 -119.84989 32174 ft 513 kts 68°
2026-05-08 07:35 -63.62449 -119.69988 32161 ft 514 kts 68°
2026-05-08 07:36 -63.59844 -119.55030 32151 ft 514 kts 68°
2026-05-08 07:36 -63.57237 -119.40172 32153 ft 514 kts 68°
2026-05-08 07:37 -63.54598 -119.25252 32145 ft 514 kts 68°
2026-05-08 07:37 -63.51948 -119.10380 32155 ft 514 kts 67°
2026-05-08 07:38 -63.49281 -118.95526 32160 ft 514 kts 67°
2026-05-08 07:38 -63.46598 -118.80698 32163 ft 514 kts 67°
2026-05-08 07:39 -63.43909 -118.65951 32175 ft 515 kts 67°
2026-05-08 07:39 -63.41190 -118.51150 32162 ft 515 kts 67°
2026-05-08 07:40 -63.38452 -118.36358 32160 ft 515 kts 67°
2026-05-08 07:40 -63.35702 -118.21606 32158 ft 516 kts 66°
2026-05-08 07:41 -63.32930 -118.06853 32164 ft 516 kts 66°
2026-05-08 07:41 -63.30161 -117.92221 32164 ft 516 kts 66°
2026-05-08 07:42 -63.27354 -117.77499 32164 ft 516 kts 66°
2026-05-08 07:42 -63.24538 -117.62833 32163 ft 516 kts 66°
2026-05-08 07:43 -63.21707 -117.48201 32175 ft 516 kts 66°
2026-05-08 07:43 -63.18856 -117.33570 32172 ft 516 kts 66°
2026-05-08 07:44 -63.15992 -117.18978 32170 ft 517 kts 65°
2026-05-08 07:44 -63.13113 -117.04415 32176 ft 517 kts 65°
2026-05-08 07:45 -63.10232 -116.89947 32176 ft 517 kts 65°
2026-05-08 07:45 -63.07322 -116.75433 32157 ft 517 kts 65°
2026-05-08 07:46 -63.04401 -116.60971 32172 ft 516 kts 65°
2026-05-08 07:46 -63.01455 -116.46486 32437 ft 519 kts 65°
2026-05-08 07:46 -62.99976 -116.39252 32824 ft 517 kts 64°
2026-05-08 07:47 -62.98519 -116.32144 33214 ft 515 kts 64°
2026-05-08 07:47 -62.97045 -116.24985 33525 ft 513 kts 64°
2026-05-08 07:47 -62.95571 -116.17847 33773 ft 513 kts 64°
2026-05-08 07:47 -62.94091 -116.10709 33994 ft 513 kts 64°
2026-05-08 07:48 -62.92604 -116.03565 34105 ft 515 kts 64°
2026-05-08 07:48 -62.89608 -115.89235 34165 ft 515 kts 63°
2026-05-08 07:49 -62.87121 -115.77417 34186 ft 513 kts 63°
2026-05-08 07:49 -62.84122 -115.63248 34194 ft 512 kts 63°
2026-05-08 07:50 -62.80623 -115.46846 34190 ft 512 kts 63°
2026-05-08 07:50 -62.78105 -115.35120 34199 ft 512 kts 63°
2026-05-08 07:51 -62.75062 -115.21036 34206 ft 512 kts 63°
2026-05-08 07:51 -62.72006 -115.06985 34182 ft 512 kts 62°
2026-05-08 07:52 -62.68935 -114.92957 34203 ft 512 kts 62°
2026-05-08 07:52 -62.65873 -114.79062 34206 ft 513 kts 62°
2026-05-08 07:53 -62.62778 -114.65109 34205 ft 513 kts 62°
2026-05-08 07:53 -62.59661 -114.51150 34204 ft 513 kts 62°
2026-05-08 07:54 -62.56532 -114.37232 34201 ft 513 kts 62°
2026-05-08 07:54 -62.53387 -114.23330 34215 ft 513 kts 62°
2026-05-08 07:55 -62.50253 -114.09563 34212 ft 513 kts 61°
2026-05-08 07:55 -62.47078 -113.95711 34204 ft 513 kts 61°
2026-05-08 07:56 -62.43890 -113.81887 34226 ft 512 kts 61°
2026-05-08 07:56 -62.40696 -113.68129 34226 ft 512 kts 61°
2026-05-08 07:57 -62.37511 -113.54493 34208 ft 512 kts 61°
2026-05-08 07:57 -62.34297 -113.40818 34205 ft 512 kts 60°
2026-05-08 07:58 -62.31068 -113.27171 34213 ft 512 kts 60°
2026-05-08 07:58 -62.27822 -113.13537 34226 ft 512 kts 60°
2026-05-08 07:59 -62.24564 -112.99935 34226 ft 512 kts 60°
2026-05-08 07:59 -62.21309 -112.86432 34226 ft 512 kts 60°
2026-05-08 08:00 -62.18022 -112.72878 34192 ft 513 kts 60°
2026-05-08 08:00 -62.14717 -112.59334 34224 ft 512 kts 59°
2026-05-08 08:01 -62.11406 -112.45849 34238 ft 513 kts 59°
2026-05-08 08:01 -62.08078 -112.32378 34235 ft 513 kts 59°
2026-05-08 08:02 -62.04749 -112.18983 34235 ft 514 kts 59°
2026-05-08 08:02 -62.01395 -112.05553 34238 ft 514 kts 59°
2026-05-08 08:03 -61.98055 -111.92106 34208 ft 514 kts 60°
2026-05-08 08:03 -61.94815 -111.78581 34229 ft 513 kts 60°
2026-05-08 08:04 -61.91580 -111.65061 34238 ft 513 kts 60°
2026-05-08 08:04 -61.88316 -111.51573 34237 ft 513 kts 59°
2026-05-08 08:05 -61.85052 -111.38222 34241 ft 513 kts 59°
2026-05-08 08:05 -61.81753 -111.24824 34244 ft 513 kts 59°
2026-05-08 08:06 -61.78441 -111.11448 34225 ft 513 kts 59°
2026-05-08 08:06 -61.75121 -110.98118 34237 ft 513 kts 59°
2026-05-08 08:07 -61.71786 -110.84812 34231 ft 513 kts 58°
2026-05-08 08:07 -61.68439 -110.71532 34234 ft 513 kts 58°
2026-05-08 08:08 -61.65075 -110.58267 34238 ft 513 kts 58°
2026-05-08 08:08 -61.61720 -110.45119 34233 ft 513 kts 58°
2026-05-08 08:09 -61.58331 -110.31912 34230 ft 513 kts 58°
2026-05-08 08:09 -61.54923 -110.18711 34236 ft 513 kts 58°
2026-05-08 08:10 -61.51506 -110.05552 34236 ft 513 kts 57°
2026-05-08 08:10 -61.48078 -109.92431 34239 ft 514 kts 57°
2026-05-08 08:11 -61.44657 -109.79413 34240 ft 514 kts 57°
2026-05-08 08:11 -61.41203 -109.66343 34238 ft 514 kts 57°
2026-05-08 08:12 -61.37737 -109.53304 34229 ft 513 kts 57°
2026-05-08 08:12 -61.34250 -109.40267 34237 ft 514 kts 57°
2026-05-08 08:13 -61.30777 -109.27352 34241 ft 514 kts 57°
2026-05-08 08:13 -61.27270 -109.14390 34241 ft 514 kts 56°
2026-05-08 08:14 -61.23749 -109.01444 34241 ft 514 kts 56°
2026-05-08 08:14 -61.20212 -108.88521 34205 ft 514 kts 56°
2026-05-08 08:15 -61.16699 -108.75750 34239 ft 513 kts 56°
2026-05-08 08:15 -61.13147 -108.62916 34247 ft 513 kts 56°
2026-05-08 08:16 -61.09582 -108.50110 34244 ft 513 kts 56°
2026-05-08 08:16 -61.06008 -108.37340 34242 ft 513 kts 55°
2026-05-08 08:17 -61.02443 -108.24674 34255 ft 513 kts 55°
2026-05-08 08:17 -60.98848 -108.11971 34228 ft 513 kts 55°
2026-05-08 08:18 -60.95241 -107.99299 34243 ft 512 kts 54°
2026-05-08 08:18 -60.91628 -107.86675 34247 ft 512 kts 54°
2026-05-08 08:19 -60.87998 -107.74065 34247 ft 512 kts 54°
2026-05-08 08:19 -60.84358 -107.61487 34249 ft 512 kts 54°
2026-05-08 08:20 -60.80704 -107.48930 34247 ft 512 kts 54°
2026-05-08 08:20 -60.77059 -107.36469 34227 ft 512 kts 54°
2026-05-08 08:21 -60.73388 -107.23989 34237 ft 512 kts 53°
2026-05-08 08:21 -60.69704 -107.11535 34246 ft 512 kts 53°
2026-05-08 08:22 -60.66008 -106.99109 34248 ft 512 kts 53°
2026-05-08 08:22 -60.62320 -106.86774 34249 ft 513 kts 53°
2026-05-08 08:23 -60.58597 -106.74388 34243 ft 513 kts 53°
2026-05-08 08:23 -60.54860 -106.62022 34244 ft 513 kts 53°
2026-05-08 08:24 -60.51112 -106.49687 34250 ft 513 kts 53°
2026-05-08 08:24 -60.47355 -106.37388 34241 ft 512 kts 52°
2026-05-08 08:25 -60.43591 -106.25129 34243 ft 512 kts 52°
2026-05-08 08:25 -60.39814 -106.12898 34246 ft 512 kts 52°
2026-05-08 08:26 -60.36032 -106.00710 34209 ft 511 kts 52°
2026-05-08 08:26 -60.32272 -105.88660 34245 ft 510 kts 52°
2026-05-08 08:27 -60.28475 -105.76552 34251 ft 510 kts 52°
2026-05-08 08:27 -60.24666 -105.64473 34252 ft 510 kts 52°
2026-05-08 08:28 -60.20853 -105.52440 34239 ft 510 kts 51°
2026-05-08 08:28 -60.17057 -105.40522 34253 ft 509 kts 51°
2026-05-08 08:29 -60.13229 -105.28568 34235 ft 508 kts 51°
2026-05-08 08:29 -60.09393 -105.16649 34251 ft 509 kts 51°
2026-05-08 08:30 -60.05546 -105.04758 34257 ft 509 kts 51°